FW8346 Weather Reports


time (UTC)temp
C
wind
direction
speed
KPH
gust
KPH
rain 1hr
cm
rain 24hr
cm
rain mn
cm
humidity
%
barometer
mb
20260504035233 13 139 1.6 6.4 0.00 0.03 0.03 45 1000.1
20260504034735 13 213 1.6 8.0 0.00 0.03 0.03 43 1000.2
20260504034231 13 152 1.6 8.0 0.00 0.03 0.03 42 1000.3
20260504033731 13 200 1.6 6.4 0.00 0.03 0.03 43 1000.4
20260504033232 13 107 1.6 6.4 0.00 0.03 0.03 43 1000.6
20260504032730 13 226 1.6 6.4 0.00 0.03 0.03 44 1000.8
20260504032228 12 226 0.0 4.8 0.00 0.03 0.03 45 1000.9
20260504031728 12 130 0.0 8.0 0.00 0.03 0.03 46 1001.0
20260504031500 12 105 1.6 6.4 0.00 0.03 0.03 47 1001.2
20260504030722 12 136 0.0 4.8 0.00 0.03 0.03 47 1001.3
20260504030216 12 153 0.0 4.8 0.00 0.03 0.03 46 1001.4
20260504025706 11 210 0.0 1.6 0.00 0.03 0.03 49 1001.5
20260504025200 11 220 0.0 3.2 0.00 0.03 0.03 49 1001.5
20260504024655 11 120 0.0 3.2 0.00 0.03 0.03 50 1001.6
20260504024148 12 214 0.0 0.0 0.00 0.03 0.03 49 1001.7
20260504023642 12 158 0.0 0.0 0.00 0.03 0.03 47 1001.8
20260504023136 12 236 0.0 0.0 0.00 0.03 0.03 46 1001.9
20260504022630 12 236 0.0 0.0 0.00 0.03 0.03 46 1002.0
20260504022123 12 236 0.0 0.0 0.00 0.03 0.03 43 1002.1
20260504021618 12 236 0.0 0.0 0.00 0.03 0.03 42 1002.1
20260504021112 13 264 0.0 0.0 0.00 0.03 0.03 40 1002.2
20260504020606 13 264 0.0 0.0 0.00 0.03 0.03 39 1002.2
20260504020100 13 265 0.0 0.0 0.00 0.03 0.03 40 1002.3
20260504015554 13 264 0.0 0.0 0.00 0.03 0.03 38 1002.5
20260504015319 13 265 0.0 0.0 0.00 0.03 0.03 38 1002.4
20260504014547 14 265 0.0 0.0 0.00 0.03 0.03 37 1002.4
20260504014045 15 264 0.0 0.0 0.00 0.03 0.03 35 1002.4
20260504013548 15 266 0.0 0.0 0.00 0.03 0.03 33 1002.5
20260504013542 15 266 0.0 0.0 0.00 0.03 0.03 34 1002.5
20260504013201 16 266 0.0 0.0 0.00 0.03 0.03 31 1002.6
20260504012038 16 266 0.0 0.0 0.00 0.03 0.03 31 1002.6
20260504011807 16 285 0.0 1.6 0.00 0.03 0.03 30 1002.6
20260504011033 17 326 0.0 3.2 0.00 0.03 0.03 30 1002.5
20260504010804 17 192 0.0 3.2 0.00 0.03 0.03 30 1002.6
20260504010028 17 274 0.0 4.8 0.00 0.03 0.03 29 1002.6
20260504005527 17 270 1.6 8.0 0.00 0.03 0.03 29 1002.7
20260504005027 18 248 1.6 9.7 0.00 0.03 0.03 28 1002.8
20260504004759 18 276 1.6 9.7 0.00 0.03 0.03 29 1002.7
20260504004026 18 295 1.6 9.7 0.00 0.03 0.03 29 1002.8
20260504003526 18 311 1.6 9.7 0.00 0.03 0.03 29 1002.7
20260504003030 18 333 1.6 8.0 0.00 0.03 0.03 28 1002.6
20260504003024 18 295 1.6 11.3 0.00 0.03 0.03 28 1002.6
20260504002023 18 284 1.6 11.3 0.00 0.03 0.03 27 1002.6
20260504001524 19 285 3.2 14.5 0.00 0.03 0.03 27 1002.6
20260504001255 19 250 3.2 14.5 0.00 0.03 0.03 25 1002.7
20260504000522 20 288 1.6 14.5 0.00 0.03 0.03 26 1002.7
20260504000022 20 345 1.6 14.5 0.00 0.03 0.03 25 1002.9
20260503235522 20 281 3.2 11.3 0.00 0.03 0.03 25 1002.9
20260503235022 20 198 1.6 11.3 0.00 0.03 0.03 26 1003.0
20260503234524 19 281 1.6 6.4 0.00 0.03 0.03 26 1003.0
20260503234020 19 70 1.6 6.4 0.00 0.03 0.03 26 1003.0
20260503233521 20 304 3.2 9.7 0.00 0.03 0.03 26 1003.0
20260503233021 20 321 3.2 12.9 0.00 0.03 0.03 25 1003.1
20260503232521 20 320 3.2 12.9 0.00 0.03 0.03 25 1003.2
20260503232022 20 301 3.2 12.9 0.00 0.03 0.03 27 1003.3
20260503231520 19 342 1.6 12.9 0.00 0.03 0.03 25 1003.3
20260503231022 20 153 1.6 4.8 0.00 0.03 0.03 25 1003.4
20260503230521 20 308 0.0 3.2 0.00 0.03 0.03 25 1003.3
20260503230251 20 231 0.0 6.4 0.00 0.03 0.03 27 1003.3
20260503225518 20 276 3.2 14.5 0.00 0.03 0.03 25 1003.4
20260503225020 20 337 4.8 14.5 0.00 0.03 0.03 25 1003.3
20260503224517 20 338 3.2 11.3 0.00 0.03 0.03 26 1003.3
20260503224016 20 228 1.6 9.7 0.00 0.03 0.03 26 1003.4
20260503223748 20 320 3.2 11.3 0.00 0.03 0.03 26 1003.4
20260503223248 20 307 4.8 12.9 0.00 0.03 0.03 32 1003.5
20260503222514 20 195 3.2 12.9 0.00 0.03 0.03 25 1003.5
20260503222244 20 226 4.8 14.5 0.00 0.03 0.03 25 1003.7
20260503221514 20 323 6.4 16.1 0.00 0.03 0.03 25 1003.7
20260503221013 20 320 4.8 16.1 0.00 0.03 0.03 25 1003.7
20260503220512 20 322 4.8 17.7 0.00 0.03 0.03 26 1003.8
20260503220014 20 272 6.4 17.7 0.00 0.03 0.03 26 1003.9
20260503215508 20 328 4.8 14.5 0.00 0.03 0.03 27 1004.0
20260503215002 20 276 4.8 19.3 0.00 0.03 0.03 26 1004.0
20260503214456 20 266 4.8 19.3 0.00 0.03 0.03 25 1004.0
20260503213950 20 205 6.4 17.7 0.00 0.03 0.03 26 1004.2
20260503213444 19 27 4.8 20.9 0.00 0.03 0.03 26 1004.1
20260503212938 19 347 6.4 19.3 0.00 0.03 0.03 26 1004.2
20260503212703 19 314 6.4 17.7 0.00 0.03 0.03 26 1004.4
20260503212156 19 328 8.0 17.7 0.00 0.03 0.03 28 1004.4
20260503211420 19 321 9.7 20.9 0.00 0.03 0.03 30 1004.4
20260503210914 18 327 9.7 22.5 0.00 0.03 0.03 26 1004.5
20260503210408 18 264 8.0 22.5 0.00 0.03 0.03 28 1004.6
20260503205908 18 311 8.0 20.9 0.00 0.03 0.03 28 1004.7
20260503205635 18 346 12.9 30.6 0.00 0.03 0.03 29 1004.7
20260503204905 18 336 16.1 30.6 0.00 0.03 0.03 29 1004.9
20260503204406 18 323 11.3 29.0 0.00 0.03 0.03 32 1005.0
20260503203904 18 331 12.9 30.6 0.00 0.03 0.03 29 1005.1
20260503203402 18 274 14.5 30.6 0.00 0.03 0.03 28 1005.2
20260503203134 18 328 8.0 27.4 0.00 0.03 0.03 26 1005.2
20260503202403 18 349 8.0 20.9 0.00 0.03 0.03 26 1005.2
20260503201904 18 286 9.7 29.0 0.00 0.03 0.03 25 1005.3
20260503201402 18 312 9.7 29.0 0.00 0.03 0.03 26 1005.3
20260503200902 18 358 9.7 27.4 0.00 0.03 0.03 28 1005.3
20260503200402 18 335 9.7 27.4 0.00 0.03 0.03 26 1005.5
20260503195905 18 322 9.7 20.9 0.00 0.03 0.03 27 1005.6
20260503195404 18 340 8.0 20.9 0.00 0.03 0.03 28 1005.6
20260503194857 18 340 6.4 17.7 0.00 0.03 0.03 31 1005.5
20260503194350 18 292 8.0 20.9 0.00 0.03 0.03 26 1005.6
20260503193845 18 298 9.7 22.5 0.00 0.03 0.03 27 1005.7
20260503193338 18 264 9.7 22.5 0.00 0.03 0.03 27 1005.6
20260503192831 18 338 8.0 25.7 0.00 0.03 0.03 27 1005.6
20260503192326 18 7 6.4 25.7 0.00 0.03 0.03 25 1005.7
20260503192051 18 293 6.4 20.9 0.00 0.03 0.03 27 1005.6
20260503191314 18 332 11.3 29.0 0.00 0.03 0.03 26 1005.7
20260503190808 18 343 11.3 29.0 0.00 0.03 0.03 27 1005.7
20260503190303 18 341 8.0 20.9 0.00 0.03 0.03 30 1005.7
20260503185756 18 288 11.3 27.4 0.00 0.03 0.03 28 1005.8
20260503185250 17 345 14.5 29.0 0.00 0.03 0.03 34 1005.8
20260503184744 17 308 12.9 29.0 0.00 0.03 0.03 29 1006.0
20260503184239 17 330 12.9 32.2 0.00 0.03 0.03 27 1006.0
20260503183732 17 356 14.5 30.6 0.00 0.03 0.03 31 1006.0
20260503183226 17 349 17.7 30.6 0.00 0.03 0.03 27 1006.1
20260503182720 17 332 16.1 32.2 0.00 0.03 0.03 28 1006.0
20260503182215 17 351 16.1 32.2 0.00 0.03 0.03 26 1006.2
20260503181708 17 344 12.9 25.7 0.00 0.03 0.03 30 1006.1
20260503181202 17 311 9.7 25.7 0.00 0.03 0.03 23 1006.2
20260503180656 17 295 11.3 25.7 0.00 0.03 0.03 22 1006.4
20260503180150 17 323 14.5 33.8 0.00 0.03 0.03 22 1006.3
20260503175644 17 334 16.1 33.8 0.00 0.03 0.03 23 1006.3
20260503175138 17 352 14.5 30.6 0.00 0.03 0.03 21 1006.4
20260503174632 17 342 14.5 24.1 0.00 0.03 0.03 21 1006.3
20260503174126 17 18 14.5 30.6 0.00 0.03 0.03 24 1006.3
20260503173622 17 335 12.9 30.6 0.00 0.03 0.03 21 1006.4
20260503173114 17 345 11.3 25.7 0.00 0.03 0.03 25 1006.4
20260503172607 17 306 11.3 25.7 0.00 0.03 0.03 30 1006.4
20260503172102 17 329 9.7 20.9 0.00 0.03 0.03 30 1006.4
20260503171556 17 335 9.7 19.3 0.00 0.03 0.03 31 1006.4
20260503171050 17 342 11.3 27.4 0.00 0.03 0.03 32 1006.6
20260503170544 17 295 12.9 27.4 0.00 0.03 0.03 35 1006.4
20260503150826 15 321 16.1 27.4 0.00 0.03 0.03 48 1006.2
20260503150551 15 341 19.3 25.7 0.00 0.03 0.03 51 1006.2
20260503140224 13 353 16.1 27.4 0.00 0.03 0.03 60 1006.1
20260503131224 11 5 9.7 17.7 0.00 0.03 0.03 69 1006.0
20260503130724 11 5 9.7 14.5 0.00 0.03 0.03 70 1006.0
20260503130225 11 350 9.7 12.9 0.00 0.03 0.03 69 1005.9
20260503110217 6 231 0.0 0.0 0.00 0.03 0.03 87 1004.5
20260503100125 6 217 0.0 0.0 0.00 0.03 0.03 92 1004.6
20260503090114 8 217 0.0 0.0 0.00 0.03 0.03 77 1004.7
20260503081557 8 172 0.0 0.0 0.00 0.03 0.03 72 1005.0
20260503081049 8 165 0.0 0.0 0.00 0.03 0.03 72 1005.0
20260503080816 8 165 0.0 0.0 0.00 0.03 0.03 71 1005.1
20260503080311 9 165 0.0 0.0 0.00 0.03 0.03 71 1005.1
20260503072456 11 147 1.6 6.4 0.03 0.03 0.03 65 1005.1
20260503071950 11 155 0.0 6.4 0.03 0.03 0.03 64 1005.2
20260503071444 11 222 0.0 3.2 0.03 0.03 0.03 65 1005.2
20260503070939 11 135 0.0 3.2 0.03 0.03 0.03 65 1005.2
20260503070933 11 252 0.0 6.4 0.03 0.03 0.03 65 1005.3
20260503054845 12 160 1.6 4.8 0.00 0.00 0.00 65 1007.1
20260503054345 13 68 0.0 4.8 0.00 0.00 0.00 57 1007.5
20260503053843 13 54 3.2 11.3 0.00 0.00 0.00 57 1007.4
20260503053347 12 51 12.9 19.3 0.00 0.00 0.00 62 1007.0
20260503053343 13 219 8.0 16.1 0.00 0.00 0.00 61 1007.3
20260503052341 12 46 12.9 19.3 0.00 0.00 0.00 62 1007.0
20260503052111 12 13 9.7 17.7 0.00 0.00 0.00 66 1006.9
20260503051342 12 35 4.8 12.9 0.00 0.00 0.00 63 1006.8
20260503050842 12 88 1.6 4.8 0.00 0.00 0.00 60 1006.5
20260503050341 12 110 1.6 4.8 0.00 0.00 0.00 60 1006.3
20260503045842 12 91 0.0 3.2 0.00 0.00 0.00 61 1006.3
20260503045336 12 224 0.0 3.2 0.00 0.00 0.00 61 1006.4
20260503044830 12 113 1.6 6.4 0.00 0.00 0.00 61 1006.4
20260503044324 12 126 1.6 6.4 0.00 0.00 0.00 62 1006.4
20260503043818 12 174 0.0 3.2 0.00 0.00 0.00 62 1006.6
20260503043312 12 145 0.0 3.2 0.00 0.00 0.00 64 1006.8
20260503042805 12 132 0.0 3.2 0.00 0.00 0.00 69 1007.0
20260503042300 12 100 0.0 0.0 0.00 0.00 0.00 66 1007.1
20260503041753 12 103 0.0 1.6 0.00 0.00 0.00 59 1007.1
20260503041248 12 102 0.0 4.8 0.00 0.00 0.00 60 1007.0
20260503040742 12 246 0.0 4.8 0.00 0.00 0.00 61 1007.1
20260503040236 12 152 0.0 1.6 0.00 0.00 0.00 59 1007.2
20260503035730 12 160 0.0 1.6 0.00 0.00 0.00 59 1007.3